Regional Weather Roundup
Issued by NWS

Home | Current Version | Previous Version | Graphics & Text | Print | Product List | Glossary On
Versions: 1 2 3 4 5 6 7 8 9 10 11 12 13 14 15 16 17 18 19 20 21 22 23 24 25 26 27
000
ASUS45 KBOI 271310
RWRID

IDAHO REGIONAL WEATHER ROUNDUP
NATIONAL WEATHER SERVICE BOISE ID
700 AM MDT THU APR 27 2017

NOTE: "FAIR" INDICATES FEW OR NO CLOUDS BELOW 12000 FEET
WITH NO SIGNIFICANT WEATHER AND/OR OBSTRUCTIONS TO VISIBILITY

IDZ012-014-271400-
SOUTHWEST IDAHO


CITY           SKY/WX    TMP DP  RH WIND       PRES   REMARKS
BOISE          PTCLDY    39  33  79 NW9       29.90R WCI  33
CALDWELL       MOCLDY    39  31  72 SW5       29.93R
MOUNTAIN HOME  MOCLDY    40  37  89 W15       29.89S WCI  31
$$

IDZ016-017-271400-
SOUTHCENTRAL IDAHO


CITY           SKY/WX    TMP DP  RH WIND       PRES   REMARKS
BURLEY         CLEAR     36  30  79 W21G32    29.79R WCI  25
JEROME         CLEAR     35  33  92 SW22      29.82S WCI  23
TWIN FALLS     CLOUDY    36  33  89 W21G30    29.85R WCI  25
$$

IDZ019>023-271400-
SOUTHEAST IDAHO


CITY           SKY/WX    TMP DP  RH WIND       PRES   REMARKS
IDAHO FALLS    CLOUDY    36  35  96 S14       29.70R WCI  27
POCATELLO      CLOUDY    35  33  92 SW21G26   29.75R WCI  24
REXBURG        CLOUDY    35  34  96 SW7       29.68R WCI  29
$$

IDZ006-010-011-018-031-032-271400-
CENTRAL IDAHO MOUNTAINS


CITY           SKY/WX    TMP DP  RH WIND       PRES   REMARKS
MCCALL         MOCLDY    30  26  85 NE3       29.82S
HAILEY         PTCLDY    32  21  64 CALM      29.75R
STANLEY          N/A     29  20  69 CALM      29.78S
SALMON         CLOUDY    36  30  80 SE3       29.76R
CHALLIS        PTCLDY    31  28  89 W5        29.75R WCI  26
$$

IDZ002-004-006-007-026-271400-
NORTHERN IDAHO


CITY           SKY/WX    TMP DP  RH WIND       PRES   REMARKS
LEWISTON       CLOUDY    43  37  79 NE6       29.91R
LOWELL           N/A     40  38  93 CALM      29.91R
COEUR D`ALENE  PTCLDY    35  32  88 S8        29.82R WCI  29
MULLAN PASS    LGT SNOW  25  24  96 VRB6      29.72R FOG     WCI  18
$$




USA.gov is the U.S. government's official web portal to all federal, state and local government web resources and services.